Погода в Великой Губе

Россия / Республика Карелия     62°14′55″N   35°04′12″E
темп.,
°C
ветер,
м/с
пор.,
м/с
влажн.,
%
обл.,
%
осадки,
мм/ч
давл.,
гПа
погр.,
м
15 мая, сб
сб1500:00+9юв228162 0.0 101327
03:00+8ююв1176100 0.0 101324
06:00+9вюв1177100 0.0 101230
09:00+12юв247173 0.0 1012190
12:00+17ююв2456100 0.0 1011634
15:00+19в244713 0.0 10091327
18:00+20св474990 0.0 1007760
21:00+16св41061100 0.0 1005240
16 мая, вс
вс1600:00+13св3992100 3.6 1003322
03:00+12ссв4897100 10.4 1002242
06:00+11ссз4794100 1.0 1001248
09:00+10зсз4794100 2.0 1001464
12:00+10з3593100 0.3 1002417
15:00+9ссз51195100 2.0 1005433
18:00+11сз3889100 0.6 1006407
21:00+10з369292 0.7 1008194
17 мая, пн
пн1700:00+10зсз2295100 0.1 100918
03:00+8сз2393100 0.1 101149
06:00+9ссз238940 0.0 1012117
09:00+13юз11745 0.0 1014445
12:00+13ю327513 0.0 1015453
15:00+15ююв217014 0.0 1014417
18:00+14юв2374100 0.0 1014183
21:00+13в2282100 0.1 101427
18 мая, вт
вт1800:00+13в3982100 0.0 1013159
03:00+11вюв31087100 0.0 1012168
06:00+14вюв51280100 0.0 1010319
09:00+16вюв51478100 0.2 1009503
12:00+18юв51374100 0.4 1008515
15:00+17ююв5147063 0.4 1006400
18:00+17юв6176791 0.0 1004440
21:00+14ююв61775100 0.0 1004344
19 мая, ср
ср1900:00+14юв61779100 0.0 1003410
03:00+13юв5167915 0.0 1002346
06:00+14юв717806 0.0 1001561
09:00+12ююв7158831 0.0 1001329
12:00+14ююв5127935 0.0 1002291
15:00+15ююв5107097 0.0 1001234
18:00+14юв4876100 0.1 1000128
21:00+9ююв3898100 1.3 1000131